Regional Weather Roundup
Issued by NWS

Home | Current Version | Previous Version | Text Only | Print | Product List | Glossary On
Versions: 1 2 3 4 5 6 7 8 9 10 11 12 13 14 15 16 17 18 19 20 21 22 23 24 25 26 27 28 29 30 31 32 33 34 35 36 37 38 39 40 41 42 43 44 45 46 47 48 49 50
000
ASUS43 KMKX 302021
RWRWI

WISCONSIN REGIONAL WEATHER ROUNDUP
NATIONAL WEATHER SERVICE MILWAUKEE/SULLIVAN WI
200 PM CST FRI JAN 30 2015

NOTE: "FAIR" INDICATES FEW OR NO CLOUDS BELOW 12,000 FEET WITH NO
SIGNIFICANT WEATHER AND/OR OBSTRUCTIONS TO VISIBILITY.

WIZ001-002-006>008-014>016-023>028-302100-
NORTHWEST WISCONSIN

CITY           SKY/WX    TMP DP  RH WIND       PRES   REMARKS
SUPERIOR ARPT  CLOUDY    17   4  58 CALM      30.38F
ASHLAND        CLOUDY    16   4  59 SW6       30.39F WCI   7
HAYWARD        CLOUDY    14   1  56 S8        30.36F WCI   3
SIREN          CLOUDY    16   6  63 S8        30.36F WCI   5
CUMBERLAND     PTSUNNY   14   5  67 SW7       30.37F WCI   4
RICE LAKE      CLOUDY    15   5  65 S7        30.40F WCI   5
CHETEK         CLOUDY    15   5  63 S5        30.39F WCI   7
LADYSMITH      CLOUDY    16   6  63 S5        30.40F WCI   9
EAU CLAIRE     MOSUNNY   17   5  59 SW8       30.41F WCI   7
MENOMONIE      FAIR      19   7  59 SE8       30.42F WCI   9
NEW RICHMOND   MOSUNNY   20  10  64 S8        30.38F WCI  10
OSCEOLA        MOSUNNY   21  10  60 S10       30.41F WCI  10
$$

WIZ003>005-009-010-017-018-302100-
NORTH CENTRAL WISCONSIN

CITY           SKY/WX    TMP DP  RH WIND       PRES   REMARKS
MANITOWISH WTR MOSUNNY   15   2  57 S9        30.32F WCI   3
ARBOR VITAE    MOSUNNY   18   5  58 SW7       30.32F WCI   8
WOODRUFF       MOSUNNY   18   5  58 SW7       30.32F WCI   8
RHINELANDER    PTSUNNY   16   3  56 VRB7      30.34F WCI   6
EAGLE RIVER    FAIR      16   1  53 SW8       30.31F WCI   5
LAND O LAKES   MOSUNNY   18   3  52 SW7       30.31F WCI   9
PHILLIPS       CLOUDY    16   2  56 SW6       30.33F WCI   7
TOMAHAWK       CLOUDY    18   2  51 CALM      30.36F
MEDFORD        MOSUNNY   14   5  66 SW8       30.37F WCI   3
MERRILL        PTSUNNY   18   5  57 W5        30.38F WCI  11
$$

WIZ029-030-035-036-043>047-302100-
CENTRAL WISCONSIN

CITY           SKY/WX    TMP DP  RH WIND       PRES   REMARKS
WAUSAU         FAIR      18   4  54 W9        30.38F WCI   7
MOSINEE        NOT AVBL
MARSHFIELD     MOSUNNY   17   6  62 W6        30.39F WCI   9
STEVENS POINT  MOSUNNY   18   3  52 W7        30.42S WCI   8
WAUPACA        MOSUNNY   26   7  43 SW8       30.43F WCI  18
WAUTOMA        PTSUNNY   23   6  48 VRB6      30.44F WCI  16
WISC RAPIDS    PTSUNNY   20   4  50 SW8       30.42F WCI  10
CAMP DOUGLAS   CLOUDY    21   7  53 CALM      30.43F
$$

WIZ011>013-019>022-031-037>040-048>050-302100-
NORTHEAST WISCONSIN

CITY           SKY/WX    TMP DP  RH WIND       PRES   REMARKS
ANTIGO         PTSUNNY   16   5  62 SW7       30.36F WCI   6
SHAWANO        MOSUNNY   22   7  53 W5        30.43F WCI  15
OCONTO         MOSUNNY   17   7  62 MISG      30.44F
STURGEON BAY   SUNNY     18   1  49 W8        30.46S WCI   7
GREEN BAY      MOSUNNY   20   8  60 SW8       30.45F WCI  10
MANITOWOC      MOSUNNY   26  10  50 CALM      30.45F
APPLETON       PTSUNNY   21   7  53 SW6       30.43F WCI  14
CLINTONVILLE   PTSUNNY   21   7  53 SW6       30.43F WCI  14
OSHKOSH        MOSUNNY   22   9  57 S5        30.44F WCI  16
$$

WIZ032>034-041-042-053>061-302100-
SOUTHWEST WISCONSIN

CITY           SKY/WX    TMP DP  RH WIND       PRES   REMARKS
LA CROSSE      SUNNY     24   7  48 SE7       30.45F WCI  16
SPARTA         PTSUNNY   22   8  53 W7        30.45F WCI  14
VIROQUA        SUNNY     23  10  56 W5        30.41F WCI  17
BOSCOBEL       SUNNY     26   8  46 SW6       30.47F WCI  19
PRAIRIE DU CHI SUNNY     25   7  46 CALM      30.47F
PLATTEVILLE    SUNNY     24  12  60 S3        30.44F
$$

WIZ056-057-062-063-064-067-068-302100-
SOUTH CENTRAL WISCONSIN

CITY           SKY/WX    TMP DP  RH WIND       PRES   REMARKS
REEDSBURG      MOSUNNY   22   9  57 S5        30.44F WCI  16
BARABOO/DELLS  MOSUNNY   22   9  55 SW7       30.43F WCI  14
LONE ROCK      MOSUNNY   25   8  48 W6        30.46F WCI  18
MINERAL POINT  SUNNY     27  12  54 SW6       30.43F WCI  20
MADISON        MOSUNNY   24   9  52 NW7       30.45F WCI  16
MIDDLETON      MOSUNNY   27   9  47 CALM      30.45F
WATERTOWN      FAIR      24   9  54 W7        30.45F WCI  15
MONROE         MOSUNNY   27  12  54 SW7       30.43F WCI  19
JANESVILLE     MOSUNNY   27  10  50 W8        30.47F WCI  18
$$

WIZ051-052-058>065-066-070>072-302100-
SOUTHEAST WISCONSIN

CITY           SKY/WX    TMP DP  RH WIND       PRES   REMARKS
MILWAUKEE      MOSUNNY   25   9  50 E9        30.46F WCI  15
WAUKESHA       MOSUNNY   21   7  53 W7        30.45F WCI  13
MILWAUKEE/TIMM SUNNY     25   1  36 W5        30.46F WCI  19
RACINE         SUNNY     25  10  53 E3        30.47F
BURLINGTON     SUNNY     24   7  49 SW3       30.46F
KENOSHA        SUNNY     26   9  48 VRB6      30.45F WCI  19
FOND DU LAC    MOSUNNY   21   7  54 SW5       30.44F WCI  15
SHEBOYGAN      MOSUNNY   23   9  55 SW6       30.44F WCI  16
WEST BEND      SUNNY     25   7  46 CALM      30.43F
JUNEAU         SUNNY     21   9  59 CALM      30.45F
$$

LSZ147-162-302100-
LAKE SUPERIOR

STATION/POSITION TIME  TEMP    WIND        PRES    WAVE
                       AIR SEA DIR/SP/G            HT/PER
                 (UTC) (F)     (DEG/KT/KT) (MB)    (FT/S)
DEVILS ISLAND    2000   15     230/  8/ 12 1030.3F
PORT WING        1940   15     220/  4/  7 1029.5F
SAXON HARBOR     1900   19     180/  2/ 13 1029.8F
$$

LMZ867-665-643>646-302100-
LAKE MICHIGAN

STATION/POSITION TIME  TEMP    WIND        PRES    WAVE
                       AIR SEA DIR/SP/G            HT/PER
                 (UTC) (F)     (DEG/KT/KT) (MB)    (FT/S)
NORTHPORT PIER   1912   15     320/  7/ 11 1031.2F
SISTER BAY       1913   29        CALM       N/A
KEWAUNEE LAKESHO 2000   20     290/  3/  7 1030.4F
SHEBOYGAN LAKESH 2000   19     110/  7/  8 1032.5F
PORT WASHINGTON  1940   23     140/  6/  9 1032.2F
MILWAUKEE LAKESH 2000   23     120/  6/  8   N/A
KENOSHA   LAKESH 2000   24      80/  5/  7 1031.5F
$$

TC  - TEMPERATURE IN CELSIUS
VSB - VISIBILITY IN STATUTE MILES
WCI - WIND CHILL INDEX
HX  - HEAT INDEX




USA.gov is the U.S. government's official web portal to all federal, state and local government web resources and services.